| time (UTC) | temp F | wind direction | speed MPH | gust MPH | rain 1hr in | rain 24hr in | rain mn in | humidity % | barometer mb |
| 20260901031403 | 79 | 158 | 0.0 | 0.0 | 0.00 | 0.00 | 0.00 | 83 | 1011.9 |
| 20260901030303 | 79 | 158 | 0.0 | 0.0 | 0.00 | 0.00 | 0.00 | 83 | 1011.5 |
| 20260901024802 | 79 | 158 | 0.0 | 0.0 | 0.00 | 0.00 | 0.00 | 83 | 1011.9 |
| 20260901023602 | 79 | 158 | 0.0 | 0.0 | 0.00 | 0.00 | 0.00 | 83 | 1011.5 |
| 20260901022502 | 80 | 158 | 0.0 | 0.0 | 0.00 | 0.00 | 0.00 | 83 | 1011.5 |
| 20260901021202 | 80 | 158 | 0.0 | 0.0 | 0.00 | 0.00 | 0.00 | 81 | 1011.2 |
| 20260901020003 | 80 | 158 | 0.0 | 0.0 | 0.00 | 0.00 | 0.00 | 81 | 1011.2 |
| 20260901014903 | 81 | 158 | 0.0 | 0.0 | 0.00 | 0.00 | 0.00 | 81 | 1010.8 |
| 20260901012502 | 82 | 158 | 0.0 | 0.0 | 0.00 | 0.00 | 0.00 | 78 | 1011.2 |
| 20260901011402 | 83 | 158 | 0.0 | 0.0 | 0.00 | 0.00 | 0.00 | 76 | 1011.2 |
| 20260901010202 | 83 | 158 | 0.0 | 0.0 | 0.00 | 0.00 | 0.00 | 78 | 1011.2 |
| 20260901005102 | 84 | 158 | 0.0 | 0.0 | 0.00 | 0.00 | 0.00 | 75 | 1011.2 |
| 20260901004003 | 84 | 113 | 0.0 | 0.0 | 0.00 | 0.00 | 0.00 | 74 | 1011.2 |
| 20260901002901 | 84 | 158 | 0.0 | 0.0 | 0.00 | 0.00 | 0.00 | 73 | 1011.2 |
| 20260901001502 | 85 | 135 | 0.0 | 0.0 | 0.00 | 0.00 | 0.00 | 71 | 1011.2 |
| 20260901000402 | 86 | 158 | 0.0 | 0.0 | 0.00 | 0.00 | 0.00 | 71 | 1010.8 |
| 20260831234102 | 87 | 158 | 0.0 | 0.0 | 0.00 | 0.00 | 0.00 | 66 | 1011.2 |
| 20260831233003 | 88 | 158 | 0.0 | 0.0 | 0.00 | 0.00 | 0.00 | 73 | 1011.5 |
| 20260831232002 | 87 | 158 | 0.0 | 0.0 | 0.00 | 0.00 | 0.00 | 69 | 1011.2 |
| 20260831230902 | 87 | 180 | 0.0 | 1.0 | 0.00 | 0.00 | 0.00 | 69 | 1011.2 |
| 20260831225802 | 87 | 135 | 1.0 | 2.0 | 0.00 | 0.00 | 0.00 | 69 | 1011.2 |
| 20260831222402 | 89 | 338 | 1.0 | 2.0 | 0.00 | 0.00 | 0.00 | 63 | 1011.5 |
| 20260831221301 | 90 | 248 | 1.0 | 4.0 | 0.00 | 0.00 | 0.00 | 61 | 1011.2 |
| 20260831220202 | 90 | 180 | 2.0 | 3.0 | 0.00 | 0.00 | 0.00 | 63 | 1011.5 |
| 20260831215003 | 89 | 113 | 3.0 | 3.0 | 0.00 | 0.00 | 0.00 | 61 | 1011.5 |
| 20260831213902 | 89 | 113 | 5.0 | 6.0 | 0.00 | 0.00 | 0.00 | 60 | 1011.2 |
| 20260831212802 | 90 | 135 | 4.0 | 5.0 | 0.00 | 0.00 | 0.00 | 60 | 1011.5 |
| 20260831211702 | 92 | 113 | 2.0 | 6.0 | 0.00 | 0.00 | 0.00 | 61 | 1011.2 |
| 20260831210602 | 93 | 113 | 5.0 | 5.0 | 0.00 | 0.00 | 0.00 | 59 | 1011.2 |
| 20260831205402 | 92 | 158 | 3.0 | 4.0 | 0.00 | 0.00 | 0.00 | 61 | 1011.5 |
| 20260831204402 | 92 | 225 | 2.0 | 3.0 | 0.00 | 0.00 | 0.00 | 61 | 1011.2 |
| 20260831203301 | 91 | 113 | 4.0 | 4.0 | 0.00 | 0.00 | 0.00 | 60 | 1011.5 |
| 20260831202202 | 90 | 113 | 3.0 | 5.0 | 0.00 | 0.00 | 0.00 | 61 | 1011.5 |
| 20260831201103 | 90 | 90 | 3.0 | 3.0 | 0.00 | 0.00 | 0.00 | 61 | 1011.5 |
| 20260831194602 | 92 | 135 | 2.0 | 5.0 | 0.00 | 0.00 | 0.00 | 60 | 1011.5 |
| 20260831193502 | 90 | 113 | 4.0 | 5.0 | 0.00 | 0.00 | 0.00 | 63 | 1011.5 |
| 20260831192402 | 90 | 158 | 2.0 | 4.0 | 0.00 | 0.00 | 0.00 | 63 | 1011.5 |
| 20260831191302 | 88 | 113 | 3.0 | 7.0 | 0.00 | 0.00 | 0.00 | 65 | 1011.5 |
| 20260831190202 | 88 | 135 | 2.0 | 5.0 | 0.00 | 0.00 | 0.00 | 66 | 1011.5 |
| 20260831185202 | 88 | 158 | 2.0 | 4.0 | 0.00 | 0.00 | 0.00 | 68 | 1011.5 |
| 20260831184102 | 87 | 90 | 4.0 | 4.0 | 0.00 | 0.00 | 0.00 | 68 | 1011.5 |
| 20260831183003 | 86 | 90 | 3.0 | 3.0 | 0.00 | 0.00 | 0.00 | 68 | 1011.5 |
| 20260831180702 | 84 | 270 | 2.0 | 4.0 | 0.00 | 0.00 | 0.00 | 70 | 1011.9 |
| 20260831175502 | 85 | 135 | 4.0 | 4.0 | 0.00 | 0.00 | 0.00 | 71 | 1011.5 |
| 20260831174402 | 83 | 0 | 2.0 | 4.0 | 0.00 | 0.00 | 0.00 | 70 | 1011.9 |
| 20260831173302 | 83 | 135 | 3.0 | 3.0 | 0.00 | 0.00 | 0.00 | 73 | 1011.5 |
| 20260831172202 | 83 | 68 | 3.0 | 3.0 | 0.00 | 0.00 | 0.00 | 75 | 1011.5 |
| 20260831171102 | 82 | 270 | 1.0 | 4.0 | 0.00 | 0.00 | 0.00 | 73 | 1011.5 |
| 20260831170003 | 81 | 158 | 0.0 | 2.0 | 0.00 | 0.00 | 0.00 | 74 | 1011.5 |
| 20260831164803 | 81 | 113 | 2.0 | 4.0 | 0.00 | 0.00 | 0.00 | 74 | 1011.2 |
| 20260831163702 | 80 | 135 | 3.0 | 5.0 | 0.00 | 0.00 | 0.00 | 76 | 1011.5 |
| 20260831162602 | 80 | 293 | 3.0 | 3.0 | 0.00 | 0.00 | 0.00 | 78 | 1011.5 |
| 20260831161502 | 80 | 135 | 3.0 | 3.0 | 0.00 | 0.00 | 0.00 | 75 | 1011.5 |
| 20260831160403 | 80 | 158 | 1.0 | 3.0 | 0.00 | 0.00 | 0.00 | 75 | 1010.8 |
| 20260831154203 | 79 | 158 | 0.0 | 3.0 | 0.00 | 0.00 | 0.00 | 78 | 1010.5 |
| 20260831153102 | 78 | 113 | 4.0 | 4.0 | 0.00 | 0.00 | 0.00 | 78 | 1010.5 |
| 20260831152002 | 78 | 23 | 3.0 | 4.0 | 0.00 | 0.00 | 0.00 | 78 | 1010.5 |
| 20260831150802 | 77 | 315 | 2.0 | 2.0 | 0.00 | 0.00 | 0.00 | 80 | 1010.5 |
| 20260831145602 | 77 | 270 | 2.0 | 3.0 | 0.00 | 0.00 | 0.00 | 81 | 1010.5 |
| 20260831144502 | 76 | 90 | 3.0 | 3.0 | 0.00 | 0.00 | 0.00 | 83 | 1010.5 |
| 20260831143402 | 75 | 113 | 0.0 | 1.0 | 0.00 | 0.00 | 0.00 | 83 | 1009.8 |
| 20260831142305 | 75 | 135 | 2.0 | 2.0 | 0.00 | 0.00 | 0.00 | 83 | 1010.5 |
| 20260831141202 | 75 | 158 | 3.0 | 3.0 | 0.00 | 0.00 | 0.00 | 85 | 1009.8 |
| 20260831135003 | 75 | 293 | 4.0 | 8.0 | 0.00 | 0.00 | 0.00 | 83 | 1008.5 |
| 20260831133902 | 75 | 68 | 4.0 | 5.0 | 0.00 | 0.00 | 0.00 | 83 | 1010.5 |
| 20260831132602 | 76 | 158 | 3.0 | 3.0 | 0.00 | 0.00 | 0.00 | 83 | 1010.5 |
| 20260831123202 | 75 | 135 | 0.0 | 4.0 | 0.00 | 0.00 | 0.00 | 86 | 1010.2 |
| 20260831122002 | 75 | 90 | 2.0 | 4.0 | 0.00 | 0.00 | 0.00 | 86 | 1009.8 |
| 20260831115802 | 75 | 113 | 3.0 | 3.0 | 0.00 | 0.00 | 0.00 | 86 | 1009.5 |
| 20260831114702 | 75 | 135 | 2.0 | 2.0 | 0.00 | 0.00 | 0.00 | 86 | 1009.5 |
| 20260831113602 | 75 | 135 | 2.0 | 2.0 | 0.00 | 0.00 | 0.00 | 86 | 1009.5 |
| 20260831112502 | 75 | 135 | 3.0 | 3.0 | 0.00 | 0.00 | 0.00 | 86 | 1009.1 |
| 20260831111302 | 75 | 135 | 0.0 | 0.0 | 0.00 | 0.00 | 0.00 | 86 | 1008.5 |
| 20260831110003 | 75 | 158 | 0.0 | 0.0 | 0.00 | 0.00 | 0.00 | 86 | 1008.5 |
| 20260831105002 | 75 | 158 | 0.0 | 2.0 | 0.00 | 0.00 | 0.00 | 86 | 1008.8 |
| 20260831103902 | 75 | 158 | 2.0 | 2.0 | 0.00 | 0.00 | 0.00 | 86 | 1008.8 |
| 20260831102803 | 74 | 158 | 0.0 | 0.0 | 0.00 | 0.00 | 0.00 | 88 | 1008.5 |
| 20260831101302 | 74 | 158 | 0.0 | 0.0 | 0.00 | 0.00 | 0.00 | 88 | 1008.8 |
| 20260831093703 | 74 | 135 | 0.0 | 0.0 | 0.00 | 0.00 | 0.00 | 88 | 1008.5 |
| 20260831091503 | 75 | 158 | 0.0 | 0.0 | 0.00 | 0.00 | 0.00 | 86 | 1008.1 |
| 20260831090502 | 75 | 158 | 0.0 | 0.0 | 0.00 | 0.00 | 0.00 | 86 | 1007.8 |
| 20260831085402 | 75 | 113 | 0.0 | 2.0 | 0.00 | 0.00 | 0.00 | 86 | 1008.1 |
| 20260831084302 | 75 | 135 | 0.0 | 0.0 | 0.00 | 0.00 | 0.00 | 86 | 1008.1 |
| 20260831083102 | 76 | 158 | 0.0 | 0.0 | 0.00 | 0.00 | 0.00 | 86 | 1007.8 |
| 20260831081902 | 76 | 158 | 0.0 | 0.0 | 0.00 | 0.00 | 0.00 | 86 | 1007.5 |
| 20260831074903 | 77 | 158 | 0.0 | 0.0 | 0.00 | 0.00 | 0.00 | 85 | 1007.8 |
| 20260831072503 | 77 | 180 | 0.0 | 0.0 | 0.00 | 0.00 | 0.00 | 85 | 1007.5 |
| 20260831064003 | 77 | 180 | 0.0 | 0.0 | 0.00 | 0.00 | 0.00 | 83 | 1008.1 |
| 20260831062602 | 77 | 180 | 0.0 | 1.0 | 0.00 | 0.00 | 0.00 | 83 | 1008.1 |
| 20260831061202 | 78 | 225 | 0.0 | 0.0 | 0.00 | 0.00 | 0.00 | 81 | 1007.8 |
| 20260831055002 | 78 | 225 | 0.0 | 0.0 | 0.00 | 0.00 | 0.00 | 81 | 1007.8 |
| 20260831053902 | 79 | 180 | 0.0 | 0.0 | 0.00 | 0.00 | 0.00 | 81 | 1007.8 |
| 20260831052502 | 79 | 180 | 0.0 | 0.0 | 0.00 | 0.00 | 0.00 | 81 | 1007.8 |
| 20260831045002 | 80 | 293 | 0.0 | 0.0 | 0.00 | 0.00 | 0.00 | 79 | 1007.8 |
| 20260831043902 | 81 | 113 | 0.0 | 0.0 | 0.00 | 0.00 | 0.00 | 78 | 1007.5 |
| 20260831042802 | 81 | 158 | 0.0 | 0.0 | 0.00 | 0.00 | 0.00 | 78 | 1007.5 |
| 20260831033902 | 81 | 158 | 0.0 | 0.0 | 0.00 | 0.00 | 0.00 | 75 | 1007.8 |
| 20260831032802 | 82 | 158 | 0.0 | 0.0 | 0.00 | 0.00 | 0.00 | 75 | 1007.8 |